GEFSNGP_850_meantemp_084.txt.gz
Temperature
27 26 26 26 25 24 24 24 24 24 24 25 24 24 23 22 22 21 20 20 19 18 18 17 17 16 16 15 15 14 14 13 13 12 12 12 11 11 11 11 11 11 11 11
26 26 26 25 25 25 24 24 24 24 24 25 25 24 23 23 22 21 21 20 19 19 18 18 17 17 16 16 15 14 14 13 13 12 12 12 12 11 11 11 11 11 11 11
25 26 25 24 25 25 25 25 25 24 25 25 24 24 23 23 22 21 21 20 20 19 19 18 18 17 17 16 15 15 14 14 13 13 12 12 12 11 11 11 11 11 11 11
25 25 24 26 27 27 26 25 26 25 25 25 24 24 23 22 22 21 21 20 20 19 19 18 18 17 17 16 16 15 15 14 13 13 12 12 12 12 11 11 11 11 11 11
25 25 26 25 26 26 25 25 26 26 25 25 24 24 23 22 21 21 21 20 19 19 19 18 18 18 17 17 16 16 15 14 14 13 13 12 12 12 12 12 11 11 11 11
25 24 25 26 26 26 26 24 26 26 25 25 24 23 22 22 21 21 20 19 19 19 18 18 18 17 17 17 17 16 15 15 14 14 13 13 12 12 12 12 12 12 11 11
23 24 26 25 25 25 23 24 26 25 25 24 24 22 22 21 20 20 19 19 18 18 18 18 18 17 17 17 17 16 15 15 14 14 14 13 13 13 12 12 12 12 12 12
24 23 24 25 25 25 25 25 25 25 24 24 23 22 21 21 20 19 19 18 18 18 18 17 17 17 16 16 16 16 15 15 14 14 14 14 13 13 13 13 13 12 12 12
26 24 24 25 25 24 24 25 24 24 23 22 22 21 21 20 20 19 19 18 18 18 17 17 17 17 16 16 16 15 15 15 15 14 14 14 14 14 13 13 13 13 13 12
26 25 24 24 23 22 23 23 23 22 22 21 21 21 20 20 19 19 19 18 18 18 17 17 17 17 16 16 16 15 15 15 15 15 15 15 14 14 14 14 13 13 13 13
25 25 24 23 23 22 22 21 21 21 21 21 20 20 20 19 19 18 18 18 18 17 17 17 17 17 16 16 16 15 15 15 15 15 15 15 15 14 14 14 14 14 14 13
25 26 25 24 23 22 21 21 21 20 20 19 19 19 19 18 18 17 17 17 17 17 16 16 16 16 16 16 16 15 15 15 15 15 15 15 15 15 14 14 14 14 14 14
26 26 25 24 22 21 21 20 20 19 19 18 18 18 18 17 17 16 16 16 16 16 15 15 15 15 15 15 15 15 14 14 14 14 15 15 14 14 14 14 14 14 14 14
25 24 22 21 21 20 20 19 19 18 18 17 17 17 16 16 16 15 15 15 15 14 14 14 14 14 14 14 14 14 13 13 13 14 14 14 14 14 14 14 14 14 14 14
23 23 22 21 20 19 19 18 17 17 16 16 15 15 15 15 14 14 14 13 13 13 13 12 13 12 12 13 13 12 12 12 12 13 13 13 13 13 13 13 14 14 14 14
22 21 21 20 19 18 18 17 17 16 15 15 14 14 14 14 13 13 12 12 12 12 11 11 11 11 11 11 12 11 11 11 11 11 12 12 12 12 12 13 13 13 13 13
21 20 19 19 18 17 17 17 16 15 15 14 14 13 13 12 12 12 11 11 11 10 10 10 10 9 10 10 10 10 10 10 10 10 10 11 11 11 11 11 12 12 12 12
22 21 20 19 18 17 16 16 16 15 14 13 13 12 12 12 11 11 10 10 10 9 9 9 9 8 9 9 9 9 9 9 9 9 9 9 9 10 10 10 10 10 10 11
20 19 19 18 17 16 16 15 14 13 13 12 12 12 11 11 10 10 10 9 9 8 8 8 8 8 8 8 8 8 8 8 8 8 8 8 8 8 8 8 8 8 9 9
18 18 17 16 16 15 14 13 13 12 11 11 11 10 10 10 10 9 9 8 8 7 7 7 7 7 7 7 7 7 7 7 7 7 7 7 7 7 7 7 7 7 7 7
16 15 15 14 14 13 12 12 11 11 10 10 10 10 9 9 9 8 8 7 7 7 7 7 7 7 7 7 6 6 6 6 6 6 6 6 6 6 5 5 5 5 5 5
14 13 13 12 12 11 11 11 10 10 10 9 9 9 8 8 8 8 7 7 7 7 6 6 6 6 6 6 6 6 6 6 6 5 5 5 5 5 5 5 5 4 4 4
12 12 11 11 11 10 10 10 9 9 9 8 8 8 8 8 8 7 7 6 6 6 6 6 6 6 6 6 6 6 6 6 5 5 5 5 4 4 4 4 4 4 3 3
11 11 10 10 10 10 9 9 9 8 8 8 8 8 7 7 7 7 7 6 6 6 6 5 6 5 5 5 5 5 5 5 5 5 4 4 4 4 4 3 3 3 3 3
10 10 10 10 9 9 9 8 8 8 7 7 7 7 7 7 7 6 6 6 6 6 5 5 5 5 5 5 5 5 5 5 4 4 4 4 3 3 3 3 3 2 2 2
10 10 9 9 9 9 8 8 8 7 7 7 7 7 7 6 6 6 6 6 5 5 5 5 5 5 5 5 5 4 4 4 4 4 4 3 3 3 3 2 2 2 2 1
9 9 9 9 8 8 8 8 7 7 7 7 7 7 7 6 6 6 6 6 5 5 5 5 5 5 5 5 4 4 4 4 3 3 3 3 2 2 2 2 1 1 1 1

GEFSNGP_850_meantemp_090.txt.gz
Temperature
20 20 20 20 21 20 19 17 17 18 19 19 18 18 20 20 20 20 19 19 19 18 18 17 17 16 16 15 15 15 14 14 13 13 13 13 12 12 12 12 12 12 12 12
21 22 21 21 20 20 19 19 18 19 19 19 20 20 20 20 20 20 20 19 19 19 18 18 17 17 16 16 15 15 14 14 14 13 13 13 13 12 12 12 12 12 12 12
18 20 21 20 20 20 20 20 19 19 19 19 19 19 20 21 20 20 20 20 19 19 18 18 17 17 17 16 16 15 15 14 14 14 13 13 13 13 12 12 12 12 12 12
17 20 20 19 20 20 20 20 19 20 19 19 20 22 22 22 21 21 20 20 19 19 18 18 18 17 17 16 16 15 15 15 14 14 14 13 13 13 13 13 12 12 12 12
16 18 19 20 21 21 20 20 20 20 20 21 21 20 20 21 21 21 20 20 19 19 18 18 18 17 17 16 16 16 15 15 15 14 14 14 14 13 13 13 13 13 12 12
16 19 19 20 21 22 21 21 21 20 19 20 19 17 18 21 21 20 20 19 19 19 18 18 17 17 17 17 16 16 16 15 15 15 14 14 14 14 14 13 13 13 13 13
16 17 17 19 21 22 20 20 22 22 22 21 20 20 22 21 21 20 20 19 19 18 18 18 17 17 17 16 16 16 16 15 15 15 15 14 14 14 14 14 13 13 13 13
15 17 18 20 21 20 20 22 23 23 23 23 22 22 21 21 20 20 19 19 18 18 18 18 17 17 17 16 16 16 16 15 15 15 15 15 14 14 14 14 14 14 13 13
16 18 20 22 23 24 24 23 23 23 23 23 22 21 21 20 20 20 19 19 18 18 18 17 17 17 17 16 16 16 15 15 15 15 15 15 14 14 14 14 14 14 14 14
17 17 20 22 23 24 24 24 24 24 23 23 22 21 21 20 20 19 19 19 18 18 17 17 17 17 16 16 16 16 15 15 15 15 15 15 14 14 14 14 14 14 14 14
17 18 20 21 23 24 24 24 23 23 23 22 22 21 21 20 20 19 19 18 18 18 17 17 16 16 16 16 16 15 15 15 15 14 14 14 14 14 14 14 13 13 13 13
18 20 18 22 24 24 23 23 23 23 22 22 22 21 21 20 19 19 18 18 18 17 17 16 16 16 16 15 15 15 15 14 14 14 14 14 14 14 13 13 13 13 13 13
23 24 23 24 24 23 23 23 23 22 22 22 21 21 20 20 19 18 18 17 17 17 16 16 15 15 15 15 14 14 14 13 13 13 13 13 13 13 13 13 13 13 13 13
23 23 22 23 24 24 23 23 22 22 21 21 20 20 19 19 18 18 17 17 16 16 15 15 15 14 14 14 13 13 13 12 12 12 12 12 12 12 12 12 12 12 12 12
22 22 23 23 23 23 23 22 21 21 20 20 19 19 18 18 17 17 16 16 15 15 15 14 14 13 13 13 12 12 12 11 11 11 11 11 11 11 11 11 11 11 11 11
22 22 22 22 22 22 22 21 21 20 20 19 18 18 17 17 16 16 15 15 14 14 14 13 13 12 12 12 11 11 11 10 10 10 10 10 10 10 9 9 9 9 9 9
20 20 20 21 21 21 21 21 21 20 19 18 18 17 16 15 15 14 14 13 13 13 12 12 12 11 11 10 10 10 9 9 9 9 9 8 8 8 8 8 8 8 7 7
20 20 21 21 21 21 21 20 20 19 19 18 17 16 15 15 14 13 13 12 12 11 11 11 10 10 10 9 9 9 8 8 8 8 7 7 7 7 7 7 6 6 6 6
19 19 20 20 21 21 20 20 19 18 18 17 16 15 14 14 13 13 12 11 11 11 10 9 9 9 9 8 8 8 8 7 7 7 6 6 6 6 6 6 6 5 5 5
18 18 19 19 19 19 19 18 18 17 16 16 15 14 13 13 12 11 11 10 10 10 9 9 8 8 8 8 7 7 7 7 6 6 6 6 5 5 5 5 5 5 4 4
17 17 17 17 18 18 17 17 17 16 15 14 14 13 13 12 11 11 10 9 9 9 8 8 8 7 7 7 7 6 6 6 6 6 5 5 5 5 4 4 4 4 4 4
15 15 16 16 16 16 16 15 15 15 14 13 13 12 12 11 10 10 9 9 9 8 8 7 7 7 6 6 6 6 6 6 5 5 5 5 4 4 4 4 4 3 3 3
13 14 14 14 14 14 14 14 14 13 13 12 12 11 11 10 10 9 9 8 8 7 7 7 6 6 6 6 6 5 5 5 5 5 4 4 4 4 4 3 3 3 3 2
12 12 12 12 12 13 12 12 12 12 12 11 11 10 10 10 9 8 8 8 7 7 6 6 6 6 5 5 5 5 5 5 4 4 4 4 4 3 3 3 3 2 2 2
11 11 11 11 11 11 11 11 10 10 10 10 9 9 9 9 8 8 7 7 7 6 6 6 5 5 5 5 5 5 5 4 4 4 4 4 3 3 3 3 2 2 2 2
10 10 10 10 10 10 10 10 9 9 9 9 8 8 8 8 7 7 7 6 6 6 6 5 5 5 5 5 5 4 4 4 4 4 3 3 3 3 2 2 2 2 1 1
9 9 9 9 9 9 9 9 9 9 8 8 8 8 7 7 7 7 6 6 6 5 5 5 5 5 5 4 4 4 4 4 3 3 3 3 3 2 2 2 1 1 1 1

GEFSNGP_850_meantemp_096.txt.gz
Temperature
18 18 18 19 18 16 16 15 15 16 15 17 17 16 18 20 20 20 19 19 19 18 18 17 16 16 16 15 15 14 14 13 13 13 13 12 12 12 12 12 12 12 12 12
19 19 18 18 18 17 16 16 15 16 16 16 17 18 19 19 19 20 20 19 19 18 18 17 17 16 16 15 15 15 14 14 13 13 13 13 13 12 12 12 12 12 12 12
17 17 19 18 18 17 17 16 16 17 18 17 17 16 19 20 20 21 20 20 19 19 18 18 17 17 16 16 15 15 14 14 14 14 13 13 13 13 13 13 13 12 12 12
15 18 19 18 18 18 18 18 16 17 17 17 18 21 22 22 22 21 21 20 20 19 18 18 17 17 16 16 16 15 15 14 14 14 14 13 13 13 13 13 13 13 13 13
14 16 17 17 18 18 18 18 17 17 18 18 19 19 20 22 22 21 21 20 20 19 18 18 17 17 17 16 16 15 15 15 14 14 14 14 14 13 13 13 13 13 13 13
13 17 17 18 20 19 19 19 19 17 17 17 17 16 18 22 22 21 21 20 20 19 18 18 17 17 17 16 16 16 15 15 15 14 14 14 14 14 13 13 13 13 13 13
14 15 16 17 18 19 19 19 21 20 19 18 17 20 22 22 22 21 20 20 19 19 18 18 17 17 17 16 16 16 15 15 15 15 14 14 14 14 14 13 13 13 13 13
12 15 16 18 18 18 19 21 22 22 22 21 22 22 22 22 22 21 20 20 19 19 18 18 17 17 17 16 16 16 15 15 15 15 14 14 14 14 14 14 13 13 13 13
14 16 18 19 20 21 21 22 23 23 23 23 22 22 22 22 21 21 20 19 19 18 18 18 17 17 17 16 16 16 15 15 15 15 14 14 14 14 14 13 13 13 13 13
13 14 17 20 21 22 22 22 23 23 23 23 23 23 22 21 21 20 20 19 19 18 18 18 17 17 17 16 16 16 15 15 15 14 14 14 14 13 13 13 13 13 13 13
14 14 17 21 22 22 22 22 23 23 23 23 23 22 22 21 21 20 20 19 18 18 18 17 17 17 16 16 16 15 15 15 14 14 14 13 13 13 13 13 12 12 12 12
15 17 17 20 22 21 21 22 22 22 23 23 23 22 22 21 21 20 20 19 18 18 17 17 17 16 16 16 15 15 15 14 14 14 13 13 12 12 12 12 12 12 12 12
18 19 19 19 20 21 21 21 22 22 22 22 22 22 22 21 21 20 19 19 18 18 17 17 16 16 16 15 15 15 14 14 13 13 12 12 12 11 11 11 11 11 11 11
18 17 17 18 19 20 20 20 21 21 22 22 22 22 21 21 20 20 19 19 18 17 17 16 16 15 15 15 14 14 14 13 12 12 12 11 11 11 10 10 10 10 10 10
16 16 16 17 18 19 19 19 20 20 21 21 21 21 21 21 20 20 19 18 17 17 16 16 15 15 14 14 13 13 13 12 12 11 11 10 10 10 10 9 9 9 9 9
14 15 15 16 16 17 18 19 19 20 20 21 21 21 20 20 20 19 18 17 17 16 16 15 15 14 14 13 13 12 12 11 11 10 10 10 9 9 9 8 8 8 8 8
12 12 13 13 14 16 17 18 18 19 20 20 20 20 19 19 18 18 17 16 16 15 15 14 14 13 13 12 12 11 11 10 10 9 9 9 8 8 8 7 7 7 7 6
11 11 12 12 13 14 16 17 18 18 19 19 19 18 18 18 18 17 16 15 14 14 13 13 13 12 12 11 11 10 10 9 9 8 8 8 7 7 7 6 6 6 6 5
11 11 12 12 13 13 14 16 17 18 18 18 18 18 17 17 17 16 15 14 14 13 12 12 11 11 11 10 10 9 9 8 8 7 7 7 6 6 6 6 5 5 5 5
10 11 11 12 13 13 14 15 16 16 17 17 16 16 16 16 16 15 14 14 13 13 12 11 11 10 9 9 9 8 8 7 7 7 6 6 6 5 5 5 4 4 4 4
9 10 10 11 12 12 13 14 14 15 15 15 15 15 15 15 15 14 13 12 12 11 11 10 10 9 8 8 8 8 7 7 6 6 6 5 5 5 4 4 4 4 3 3
8 9 9 10 11 11 12 12 13 13 14 14 14 14 14 14 13 13 12 12 11 10 10 9 9 8 8 7 7 7 7 6 6 6 5 5 5 4 4 4 3 3 3 3
8 8 9 9 10 10 11 11 11 12 12 12 13 13 13 13 13 12 11 11 10 9 9 8 8 7 7 7 6 6 6 6 5 5 5 4 4 4 4 3 3 3 2 2
7 7 8 8 9 9 10 10 10 10 11 11 11 12 12 12 11 11 11 10 9 9 8 8 7 7 6 6 6 6 5 5 5 5 4 4 4 4 3 3 3 2 2 2
7 7 7 8 8 8 9 9 9 9 10 10 10 10 10 11 11 10 9 9 8 8 7 7 6 6 6 6 5 5 5 5 5 4 4 4 4 3 3 3 2 2 2 2
6 7 7 7 7 8 8 8 8 9 9 9 9 9 9 9 9 9 9 8 8 7 7 6 6 6 6 5 5 5 5 4 4 4 4 3 3 3 3 2 2 2 2 2
6 6 7 7 7 7 7 8 8 8 8 8 8 8 8 8 8 8 8 7 7 6 6 6 6 5 5 5 5 4 4 4 4 4 3 3 3 3 2 2 2 2 1 1

GEFSNGP_850_meantemp_102.txt.gz
Temperature
25 24 24 24 24 23 23 24 24 24 24 25 26 25 24 23 22 21 20 19 19 18 18 17 17 16 16 15 15 14 14 14 13 13 13 13 13 13 12 12 12 12 12 12
24 24 23 23 23 23 23 23 23 24 24 26 25 24 23 22 21 21 20 20 19 19 18 18 17 17 16 16 15 15 14 14 14 13 13 13 13 13 13 13 13 12 12 12
24 24 23 23 24 24 24 24 24 24 25 26 25 24 24 23 22 21 21 20 20 19 19 18 18 17 16 16 15 15 14 14 14 14 14 13 13 13 13 13 13 13 13 12
23 23 22 25 25 24 24 24 24 24 25 25 25 24 23 22 22 22 21 21 20 20 19 19 18 17 17 16 16 15 15 14 14 14 14 14 14 13 13 13 13 13 13 13
23 23 23 24 24 23 23 24 25 25 25 24 23 22 23 22 22 22 22 21 20 20 19 19 18 17 17 16 16 15 15 15 14 14 14 14 14 14 13 13 13 13 13 13
22 22 22 24 24 23 23 24 25 24 24 24 22 24 25 23 22 22 21 21 20 20 19 19 18 17 17 16 16 16 15 15 15 15 15 14 14 14 14 14 14 13 13 13
22 22 23 25 22 22 23 24 24 23 23 23 23 24 23 22 22 21 21 21 21 20 19 19 18 18 17 17 16 16 16 15 15 15 15 14 14 14 14 14 14 13 13 13
22 22 23 23 22 23 24 23 22 22 22 22 22 22 21 21 21 21 21 21 21 20 19 19 18 18 17 17 16 16 16 16 15 15 15 14 14 14 14 14 13 13 13 13
22 23 23 21 22 21 21 21 21 21 21 20 20 21 21 21 21 21 21 21 20 20 19 19 18 18 17 17 16 16 16 16 15 15 15 14 14 14 13 13 13 13 12 12
21 22 22 21 20 20 20 20 20 20 20 20 20 20 20 20 20 20 20 20 20 20 19 19 18 18 17 17 17 16 16 15 15 15 14 14 14 13 13 12 12 12 12 12
20 21 21 21 20 19 19 19 19 19 19 19 19 20 20 20 20 20 20 20 20 20 19 19 18 18 17 17 16 16 15 15 15 14 14 13 13 13 13 13 12 12 12 11
19 20 19 19 19 18 18 18 18 18 18 19 19 19 19 19 20 20 20 20 20 19 19 19 18 18 17 17 16 16 15 15 15 14 14 13 13 13 12 12 12 12 11 11
16 16 16 16 16 16 16 16 17 17 17 18 18 18 19 19 19 20 20 19 19 19 19 18 18 17 17 17 16 16 15 15 14 14 13 13 12 12 11 11 11 11 11 11
14 14 15 15 14 14 15 15 15 16 16 17 17 18 18 18 19 19 19 19 19 19 18 18 18 17 17 17 16 15 15 15 14 13 13 12 11 11 10 10 10 10 10 10
12 12 13 13 13 13 13 14 14 15 15 16 16 17 17 18 18 19 19 19 18 18 18 18 17 17 17 16 16 15 15 14 14 13 12 12 11 10 10 9 9 9 8 8
11 11 11 11 12 12 12 12 13 14 14 14 15 16 16 17 17 17 18 18 18 18 17 17 17 17 16 16 15 15 14 14 13 12 12 11 10 10 9 9 8 8 8 7
9 10 10 10 10 11 11 11 11 12 13 13 14 15 15 16 16 16 17 17 17 17 17 16 16 16 16 15 15 14 14 13 12 12 11 10 10 9 9 8 8 7 7 7
8 8 8 9 9 9 10 10 10 11 11 12 13 13 14 15 15 16 16 16 15 15 15 15 15 15 15 15 14 13 13 12 11 11 10 10 9 9 8 8 7 7 6 6
8 8 8 8 8 8 9 9 10 10 11 11 12 12 13 14 14 14 14 14 14 14 14 14 14 14 14 14 13 13 12 11 11 10 9 9 8 8 7 7 7 6 6 5
7 7 7 7 8 8 8 9 9 9 10 10 11 11 12 13 13 13 13 13 14 14 14 14 13 13 13 13 12 12 11 10 10 9 9 8 8 7 7 6 6 6 5 5
7 7 7 7 7 8 8 8 8 8 9 9 10 10 11 11 11 11 12 12 12 12 13 13 13 12 12 12 11 10 10 9 9 8 8 7 7 7 6 6 5 5 5 4
7 7 7 7 7 7 8 8 8 8 8 9 9 9 9 10 10 10 11 11 11 12 12 12 12 12 11 11 10 9 9 8 8 8 7 7 6 6 6 5 5 5 4 4
6 6 6 6 7 7 7 7 7 8 8 8 8 8 8 9 9 9 9 10 10 11 11 11 11 11 10 9 9 8 8 8 7 7 7 6 6 6 5 5 5 4 4 3
6 6 6 6 6 6 7 7 7 7 7 7 7 7 8 8 8 8 8 9 10 10 10 10 10 10 9 8 8 7 7 7 6 6 6 6 5 5 5 4 4 4 3 3
6 6 6 6 6 6 6 6 6 6 7 7 6 7 7 7 7 7 8 8 8 8 9 9 8 8 8 7 7 7 6 6 6 6 5 5 5 5 4 4 3 3 3 2
5 5 5 5 5 5 6 6 6 6 6 6 6 6 6 6 7 7 7 7 7 7 7 7 7 7 6 6 6 6 6 6 5 5 5 5 4 4 4 3 3 3 3 2
5 5 5 5 5 5 5 5 5 5 6 6 6 6 6 6 6 6 6 6 6 6 6 6 6 6 6 6 5 5 5 5 5 5 4 4 4 4 3 3 3 3 2 2

GEFSNGP_850_meantemp_108.txt.gz
Temperature
26 26 27 26 26 26 25 25 24 25 25 26 26 26 26 26 25 25 24 23 22 21 20 19 18 18 17 17 16 16 15 15 15 14 14 14 14 14 13 13 13 13 13 13
25 26 26 26 26 26 26 26 25 25 25 27 27 27 26 26 25 25 24 23 22 21 20 19 18 18 17 17 16 16 15 15 15 15 14 14 14 14 14 13 13 13 13 13
24 25 25 25 26 26 26 26 26 25 25 26 26 26 26 26 25 24 24 23 23 22 21 20 19 19 18 17 17 16 16 15 15 15 15 14 14 14 14 14 14 14 13 13
24 24 23 25 27 27 26 26 26 26 26 26 26 26 26 25 25 24 23 23 23 22 22 21 20 19 18 18 17 16 16 16 15 15 15 15 14 14 14 14 14 14 14 13
23 23 24 26 26 26 25 25 26 25 25 25 25 26 25 25 24 24 23 23 23 22 22 21 20 20 19 18 17 17 16 16 16 15 15 15 15 15 14 14 14 14 14 13
23 22 22 24 26 26 25 24 25 25 24 24 24 23 23 24 24 23 23 22 22 22 22 21 21 20 19 18 18 17 17 16 16 16 15 15 15 15 15 14 14 14 14 13
22 22 23 24 25 25 23 22 23 23 23 23 23 22 23 23 23 22 22 22 22 22 21 21 21 20 19 19 18 18 17 16 16 16 15 15 15 15 14 14 14 14 14 13
23 22 22 24 24 23 22 23 22 22 22 22 22 22 21 22 22 22 21 21 21 21 21 21 20 20 19 19 18 18 17 17 16 16 15 15 15 15 14 14 14 13 13 13
23 22 23 23 22 21 21 21 21 20 20 20 20 20 20 21 21 21 21 21 20 20 20 20 20 20 19 19 18 18 17 17 16 16 15 15 15 15 14 14 13 13 13 13
21 22 22 21 21 20 20 19 19 19 19 19 19 19 19 19 20 20 20 20 20 20 19 19 19 19 19 19 18 18 17 17 16 16 15 15 15 14 14 14 13 13 13 13
20 20 20 20 19 18 18 18 18 18 18 18 18 18 18 18 19 19 19 19 19 19 19 19 19 19 19 18 18 18 17 17 16 15 15 15 14 14 14 14 13 13 13 13
18 18 18 18 17 17 17 17 17 17 17 17 17 17 17 17 18 18 18 18 18 18 18 18 18 18 18 18 18 17 17 16 16 15 15 15 14 14 13 13 13 13 13 12
16 16 16 16 16 15 15 15 15 15 15 16 16 16 16 16 16 17 17 17 18 18 18 18 18 18 18 18 18 17 17 16 16 15 15 15 14 14 13 13 13 12 12 12
14 14 15 14 14 14 14 14 14 14 14 14 15 15 15 15 15 15 16 16 17 17 17 17 17 17 17 17 17 17 17 16 16 16 15 15 14 14 13 13 12 12 12 11
13 13 13 13 13 13 13 13 13 13 13 13 13 13 13 14 14 14 15 15 16 16 17 17 17 17 17 17 17 17 16 16 16 16 15 14 14 13 12 12 12 12 11 11
12 12 12 12 12 12 12 12 12 12 12 12 12 12 12 13 13 13 14 14 15 15 16 16 16 16 17 17 16 16 16 16 16 15 14 14 13 12 12 11 11 11 11 10
11 11 11 11 11 11 11 11 11 11 11 11 11 11 11 12 12 12 13 13 14 14 15 15 15 16 16 16 16 16 16 15 15 15 14 13 13 12 12 11 11 10 10 10
10 10 10 10 10 10 10 10 10 10 10 11 11 11 11 11 11 11 12 12 13 14 14 14 15 15 15 15 15 15 15 15 14 14 13 13 12 12 11 11 10 10 9 9
10 9 9 9 9 9 9 10 10 10 10 10 10 10 10 10 10 11 11 11 12 12 13 13 14 14 14 14 14 14 14 14 14 13 13 12 12 11 11 10 10 10 9 9
9 9 9 9 9 9 9 9 9 9 9 9 9 9 9 9 10 10 10 10 11 12 12 12 13 13 13 13 13 13 13 13 13 12 12 11 11 11 10 10 10 9 9 8
9 9 9 9 9 9 9 9 9 9 9 9 9 9 9 9 9 9 9 10 10 11 11 12 12 12 12 12 12 12 12 12 12 12 11 11 11 10 10 9 9 9 8 8
9 9 9 8 8 8 9 9 9 9 9 9 9 8 8 8 8 8 9 9 9 10 11 11 11 11 11 11 11 11 11 11 11 11 11 10 10 10 9 9 8 8 8 7
8 8 8 8 8 8 8 8 8 8 8 8 8 8 8 8 8 8 8 8 9 9 10 10 10 10 10 10 10 10 10 10 10 10 10 10 10 9 9 8 8 7 7 7
8 8 8 8 8 8 8 8 8 8 8 8 8 8 7 7 7 7 7 8 8 8 9 9 9 9 9 9 9 9 9 9 9 9 9 9 9 9 8 8 7 7 6 6
7 7 7 7 7 7 7 7 7 7 7 7 7 7 7 7 7 7 7 7 7 7 8 8 8 8 8 8 8 8 8 8 8 8 8 8 8 8 7 7 7 6 6 6
7 7 7 7 7 7 7 7 7 7 7 7 6 6 6 6 6 6 6 6 6 6 7 7 7 7 7 7 7 7 7 7 7 7 7 7 7 7 7 6 6 6 5 5
7 7 7 7 7 6 6 6 6 6 6 6 6 6 6 5 5 5 5 5 6 6 6 6 6 6 6 6 7 7 6 6 6 6 6 6 6 6 6 6 5 5 5 4

GEFSNGP_850_meantemp_114.txt.gz
Temperature
20 20 21 21 21 21 20 19 18 19 19 19 19 19 20 21 21 21 21 21 21 21 21 20 20 19 19 18 17 17 16 16 15 15 14 14 14 14 13 13 13 13 13 13
19 21 20 20 21 21 21 20 19 19 19 19 20 20 20 20 20 20 20 21 21 21 20 20 20 19 19 18 18 17 16 16 16 15 15 14 14 14 14 13 13 13 13 13
17 18 20 19 20 20 19 19 19 18 19 19 19 19 19 19 19 20 20 20 20 20 20 20 20 20 19 19 18 17 17 16 16 15 15 15 14 14 14 14 14 14 13 13
16 18 19 19 19 20 19 18 18 18 18 18 19 20 20 19 19 19 20 20 20 20 20 20 20 20 19 19 18 18 17 17 16 16 15 15 15 14 14 14 14 14 14 14
15 17 18 19 19 19 19 17 17 17 17 18 19 19 19 19 19 19 20 20 20 20 20 20 20 20 19 19 18 18 17 17 17 16 16 15 15 15 14 14 14 14 14 14
15 17 17 17 18 19 18 16 16 16 16 17 17 15 16 18 19 19 19 19 20 20 20 20 20 19 19 19 18 18 18 18 17 16 16 16 15 15 15 14 14 14 14 14
15 16 16 16 17 18 16 15 16 16 16 16 15 15 17 18 18 18 18 19 19 19 19 19 19 19 18 18 18 18 18 18 17 17 16 16 16 15 15 14 14 14 14 14
13 14 15 16 16 15 14 15 15 16 16 16 16 16 16 17 17 17 17 18 18 18 18 18 19 18 18 18 18 18 18 17 17 17 16 16 16 15 15 14 14 14 14 14
13 14 14 15 15 15 15 15 15 15 15 15 15 15 15 15 16 16 16 16 16 17 17 17 18 18 18 18 18 17 17 17 17 17 16 16 16 15 15 15 14 14 14 14
13 13 14 14 14 14 14 14 14 14 14 14 14 14 14 14 14 15 15 15 15 15 16 16 16 17 17 17 17 17 17 17 17 16 16 16 16 15 15 15 14 14 14 14
11 12 13 13 13 13 13 13 13 13 13 13 13 13 13 13 13 13 14 14 14 14 14 15 15 16 16 16 16 16 16 16 16 16 16 16 16 16 15 15 15 15 14 14
11 12 11 12 12 12 12 12 12 12 12 12 12 12 12 12 12 12 13 13 13 13 13 14 14 15 15 15 15 15 16 16 16 16 16 16 15 15 15 15 15 14 14 14
13 13 12 12 12 12 12 12 12 12 11 11 11 11 11 12 12 12 12 12 12 12 12 13 13 14 14 14 15 15 15 15 15 15 15 15 15 15 15 15 14 14 13 13
13 12 11 11 11 11 11 11 11 11 11 11 11 11 11 11 11 11 11 11 11 11 12 12 12 13 13 13 14 14 14 15 15 15 15 15 15 15 15 15 14 14 13 13
12 12 11 11 11 11 10 10 10 10 10 10 10 10 10 10 10 11 11 11 11 11 11 11 12 12 12 13 13 13 14 14 14 15 15 15 15 15 14 14 14 14 13 12
11 11 11 10 10 10 10 10 10 9 9 9 10 10 10 10 10 10 10 10 10 10 10 11 11 11 11 12 12 12 13 13 14 14 14 14 14 14 14 14 13 13 13 13
11 10 10 10 10 10 9 9 9 9 9 9 9 9 9 9 9 10 10 10 10 10 10 10 10 10 11 11 11 12 12 13 13 13 13 14 14 14 14 14 13 13 13 12
11 10 10 10 9 9 9 9 9 9 9 9 9 9 9 9 9 9 9 9 9 9 9 9 10 10 10 10 11 11 11 12 12 12 13 13 13 13 13 13 13 13 12 12
10 10 9 9 9 9 9 8 8 8 8 8 8 8 8 8 8 8 8 8 8 8 9 9 9 9 9 10 10 10 11 11 11 12 12 12 12 12 13 13 13 12 12 11
9 9 9 9 8 8 8 8 8 8 8 8 8 8 8 8 8 8 8 8 8 8 8 8 8 8 9 9 9 10 10 10 11 11 11 11 12 12 12 12 12 12 11 11
9 8 8 8 8 8 8 7 7 7 7 7 7 7 7 7 7 7 7 7 7 7 7 7 8 8 8 8 8 9 9 9 10 10 10 11 11 11 11 11 11 11 11 11
8 8 8 8 8 7 7 7 7 7 7 7 7 7 7 7 7 7 7 7 7 7 7 7 7 7 7 7 8 8 8 9 9 10 10 10 10 10 11 11 11 11 11 10
8 8 7 7 7 7 7 7 7 7 6 6 6 6 6 6 6 6 6 7 7 6 6 6 7 7 7 7 7 7 8 8 9 9 9 9 10 10 10 10 10 10 10 10
7 7 7 7 7 6 6 6 6 6 6 6 6 6 6 6 6 6 6 6 6 6 6 6 6 6 6 7 7 7 7 8 8 8 9 9 9 9 9 10 10 10 9 9
7 7 7 6 6 6 6 6 6 6 6 5 6 6 6 6 6 6 6 6 6 6 6 6 6 6 6 6 6 7 7 7 8 8 8 8 8 9 9 9 9 9 9 8
6 6 6 6 6 6 6 5 5 5 5 5 5 5 5 5 5 5 5 5 5 5 5 5 5 5 5 6 6 6 6 7 7 7 7 8 8 8 8 8 8 8 8 8
6 6 6 6 6 6 5 5 5 5 5 5 5 5 5 5 5 5 5 5 5 5 5 5 5 5 5 5 5 5 6 6 6 7 7 7 7 7 7 7 7 7 7 7

GEFSNGP_850_meantemp_120.txt.gz
Temperature
18 18 18 18 18 17 16 16 15 16 16 15 15 14 15 15 16 17 17 17 18 18 18 18 18 18 18 18 17 17 16 16 16 16 15 15 14 14 14 13 13 13 13 13
18 18 17 17 17 16 16 15 15 15 15 15 15 15 15 15 15 15 16 16 17 17 17 18 18 18 18 18 17 17 16 16 16 15 15 15 14 14 14 14 13 13 13 13
16 16 18 17 17 16 15 15 15 14 14 14 14 14 14 14 14 14 15 15 16 16 17 17 17 17 17 17 17 17 16 16 15 15 15 15 15 14 14 14 14 13 13 13
14 17 18 16 16 15 14 14 14 14 14 14 14 15 15 15 14 14 14 15 15 15 16 16 17 17 17 17 16 16 16 16 15 15 15 15 15 14 14 14 14 14 13 13
13 15 15 16 15 15 15 14 13 13 13 14 14 14 14 14 14 14 14 14 14 15 15 16 16 16 16 16 16 16 16 16 16 15 15 15 15 15 15 14 14 14 14 13
13 16 15 15 15 15 15 14 13 13 13 13 13 12 12 14 14 14 14 14 14 14 14 15 15 15 15 15 15 15 15 15 15 15 15 15 15 15 15 14 14 14 14 14
12 14 13 14 14 15 14 14 13 13 13 13 12 12 13 13 13 13 13 13 14 14 14 14 14 14 14 14 14 14 14 15 15 15 15 15 15 15 14 14 14 14 14 14
11 13 13 13 13 13 12 13 13 13 13 12 12 12 12 13 13 13 13 13 13 13 13 13 13 13 13 13 13 14 14 14 14 15 15 15 15 15 14 14 14 14 14 14
11 12 12 13 13 13 13 13 13 13 12 12 12 12 12 12 12 12 12 12 12 12 12 12 12 12 12 13 13 13 13 14 14 14 14 14 14 14 14 14 14 14 14 14
10 11 12 12 13 13 13 13 13 12 12 12 11 11 11 11 11 11 11 11 11 11 11 11 11 11 11 12 12 12 12 13 13 13 14 14 14 14 14 14 14 14 14 14
9 10 11 12 12 12 12 12 12 12 12 11 11 11 11 11 11 10 10 10 10 10 11 11 11 11 11 11 11 11 12 12 12 13 13 13 13 14 14 14 14 14 14 14
10 11 10 12 12 12 12 12 12 11 11 11 10 10 10 10 10 10 10 10 10 10 10 10 10 10 10 10 10 10 10 11 11 12 12 12 13 13 13 13 14 14 14 14
12 12 12 12 12 12 11 11 11 11 10 10 10 10 10 9 9 9 9 10 10 10 10 10 10 10 10 10 10 10 10 10 10 11 11 11 12 12 12 13 13 13 13 13
12 12 11 11 11 11 11 11 10 10 10 10 9 9 9 9 9 9 9 9 9 9 9 9 9 9 9 9 9 9 9 9 10 10 10 11 11 11 11 12 12 13 13 13
12 12 11 11 11 11 10 10 10 10 9 9 9 9 9 8 8 8 8 8 9 9 9 9 9 9 9 8 8 9 9 9 9 9 9 10 10 10 10 11 11 12 12 13
11 11 11 10 10 10 10 9 9 9 9 9 8 8 8 8 8 8 8 8 8 8 8 8 8 8 8 8 8 8 8 8 8 9 9 9 9 10 10 10 10 10 11 12
10 10 10 10 10 10 9 9 9 9 8 8 8 8 8 8 8 8 8 8 7 7 7 7 7 7 7 7 7 7 7 8 8 8 8 8 9 9 9 9 9 10 10 11
10 10 10 10 10 9 9 9 8 8 8 8 8 7 7 7 7 7 7 7 7 7 7 7 7 7 7 7 7 7 7 7 7 7 7 8 8 8 8 9 9 9 9 10
10 10 9 9 9 9 8 8 8 8 8 7 7 7 7 7 7 7 7 6 6 6 6 6 6 6 6 6 6 6 6 6 7 7 7 7 7 8 8 8 9 9 9 9
9 9 9 9 8 8 8 8 8 7 7 7 7 7 7 6 6 6 6 6 6 6 6 6 6 6 6 6 6 6 6 6 6 6 6 7 7 7 7 8 8 8 8 9
9 9 8 8 8 8 8 7 7 7 7 7 6 6 6 6 6 6 5 5 5 6 5 5 5 6 6 5 5 5 6 6 6 6 6 6 6 6 7 7 7 8 8 8
8 8 8 8 7 7 7 7 7 7 6 6 6 6 6 5 5 5 5 5 5 5 5 5 5 5 5 5 5 5 5 5 5 5 5 6 6 6 6 7 7 7 8 8
8 7 7 7 7 7 7 7 6 6 6 6 6 6 5 5 5 5 4 5 5 5 5 5 5 5 5 5 5 5 5 5 5 5 5 5 5 6 6 6 7 7 7 7
7 7 7 7 6 6 6 6 6 6 6 6 5 5 5 5 5 5 4 4 4 4 5 5 5 5 5 5 5 5 5 5 5 5 5 5 5 5 6 6 6 7 7 7
6 6 6 6 6 6 6 6 6 6 5 5 5 5 5 5 4 4 4 4 4 4 4 5 4 4 5 5 4 4 4 4 4 4 4 4 5 5 5 6 6 6 7 7
6 6 6 6 6 6 6 5 5 5 5 5 5 5 5 5 4 4 4 4 4 4 4 4 4 4 4 4 4 4 4 4 4 4 4 4 4 5 5 5 6 6 6 6
6 6 6 5 6 5 5 5 5 5 5 5 5 5 4 4 4 4 4 4 4 4 4 4 4 4 4 4 4 4 4 4 4 4 4 4 4 4 5 5 5 6 6 6

GEFSNGP_850_meantemp_126.txt.gz
Temperature
23 23 23 22 22 22 23 23 23 22 21 20 19 18 17 17 16 16 15 15 15 15 15 15 15 15 15 15 15 15 15 15 15 14 14 14 14 14 14 14 14 13 13 13
22 22 22 21 21 21 21 21 22 21 20 20 18 17 17 16 16 15 15 14 14 14 14 14 14 14 14 14 14 14 14 14 14 14 14 14 14 14 14 14 14 13 13 13
23 22 22 22 21 21 21 21 21 21 20 19 18 17 16 16 15 14 14 13 13 13 13 13 14 14 14 14 14 14 13 13 14 14 14 14 13 13 13 14 13 13 13 13
23 22 21 21 20 20 20 19 20 19 19 18 17 16 15 15 14 14 13 13 13 13 13 13 13 13 13 13 13 13 13 13 13 13 13 13 13 13 13 13 13 13 13 13
23 22 22 20 19 19 20 19 19 19 18 17 16 16 16 14 13 13 12 12 12 12 12 12 12 12 12 12 12 12 12 12 12 12 13 13 13 13 13 13 13 13 13 13
22 22 22 21 19 18 19 19 18 18 17 16 16 18 17 14 13 12 12 12 12 12 12 12 12 12 12 12 12 12 12 12 12 12 12 12 12 13 13 13 13 13 13 13
21 22 22 19 17 18 19 20 17 17 16 16 16 17 15 13 12 12 12 12 12 11 11 11 11 11 11 11 11 11 11 11 11 11 11 12 12 12 12 12 12 12 12 13
21 21 21 17 17 19 19 17 16 16 16 15 15 14 13 12 12 11 11 11 11 11 11 11 11 11 11 11 11 11 11 11 11 11 11 11 11 12 12 12 12 12 12 12
20 20 17 16 17 16 16 16 16 15 15 14 13 13 12 12 11 11 11 11 11 10 10 10 11 10 10 10 10 10 10 10 10 10 10 10 10 11 11 11 11 11 11 12
18 18 16 15 15 14 15 15 14 14 13 13 13 12 12 11 11 11 11 10 10 10 10 10 10 10 10 10 10 10 10 10 10 10 10 10 10 10 10 10 10 11 11 11
18 17 15 15 14 14 13 13 13 13 13 12 12 12 11 11 11 10 10 10 10 10 9 9 10 9 9 9 9 9 9 9 9 9 9 9 9 9 9 10 10 10 10 10
18 17 17 16 14 13 13 13 12 12 12 12 11 11 11 10 10 10 10 10 9 9 9 9 9 9 9 9 9 9 9 9 9 9 9 9 9 9 9 9 9 10 10 10
16 14 14 14 13 13 13 12 12 12 11 11 11 10 10 10 10 9 9 9 9 9 9 9 9 8 8 8 8 8 8 8 8 8 8 8 8 8 8 9 9 9 10 10
13 13 13 13 12 12 12 12 11 11 11 11 10 10 10 9 9 9 9 9 9 8 8 8 8 8 8 8 8 7 8 8 7 7 7 7 8 8 8 8 8 9 9 9
12 12 13 12 12 11 11 11 11 11 10 10 10 9 9 9 9 9 9 8 8 8 8 8 8 8 7 7 7 7 7 7 7 7 7 7 7 7 7 7 8 8 8 9
12 11 11 11 11 11 11 10 10 10 10 10 9 9 9 9 8 8 8 8 8 8 8 7 7 7 7 7 6 6 6 6 6 6 6 7 7 7 7 7 7 7 8 8
11 11 11 11 11 10 10 10 10 10 10 9 9 9 8 8 8 8 8 8 7 7 7 7 7 7 6 6 6 6 6 6 6 6 6 6 6 6 6 6 7 7 7 7
11 11 11 11 10 10 10 10 9 9 9 9 8 8 8 8 8 8 7 7 7 7 7 7 6 6 6 6 6 6 6 6 6 6 6 6 6 6 6 6 6 6 7 7
10 10 10 10 10 9 9 9 9 9 8 8 8 8 8 7 7 7 7 7 7 6 6 6 6 6 6 6 5 5 5 5 5 5 6 6 6 6 6 6 6 6 6 6
10 10 9 9 9 9 9 8 8 8 8 8 7 7 7 7 7 7 6 6 6 6 6 6 5 5 5 5 5 5 5 5 5 5 5 5 5 5 5 5 6 6 6 6
9 9 9 9 8 8 8 8 8 8 7 7 7 7 7 6 6 6 6 6 6 6 5 5 5 5 5 5 4 4 4 5 5 5 5 5 5 5 5 5 5 5 5 5
9 8 8 8 8 8 8 7 7 7 7 7 6 6 6 6 6 6 6 5 5 5 5 5 5 4 4 4 4 4 4 4 4 4 4 4 4 4 4 4 4 5 5 5
8 8 8 8 7 7 7 7 7 7 6 6 6 6 6 6 5 5 5 5 5 5 4 4 4 4 4 4 4 4 4 4 4 4 4 4 4 4 4 4 4 4 4 4
7 7 7 7 7 7 7 7 6 6 6 6 6 6 5 5 5 5 5 5 5 4 4 4 4 4 3 3 4 4 4 4 4 4 4 4 4 4 4 4 4 4 4 4
7 7 6 6 6 6 6 6 6 6 6 6 5 5 5 5 5 5 4 4 4 4 4 4 3 3 3 3 3 4 4 4 3 3 3 3 3 3 3 3 3 3 3 3
6 6 6 6 6 6 6 6 6 5 5 5 5 5 5 5 4 4 4 4 4 4 4 3 3 3 3 3 3 3 3 3 3 3 3 3 3 3 3 3 3 3 3 3
5 5 5 5 5 5 5 5 5 5 5 5 4 4 4 4 4 4 4 4 4 3 3 3 3 3 3 3 3 3 3 3 3 3 3 3 3 3 3 3 3 3 3 3

GEFSNGP_850_meantemp_132.txt.gz
Temperature
26 26 26 26 26 26 25 25 25 24 22 22 21 21 20 19 19 18 18 17 16 16 16 15 15 15 15 15 14 14 14 14 14 14 14 14 14 14 14 14 13 14 14 14
26 26 26 25 25 25 25 25 24 24 23 23 22 21 20 19 18 18 17 17 16 16 15 15 15 15 14 14 14 14 14 14 13 13 13 13 13 13 13 13 13 13 13 13
25 26 25 24 25 25 25 25 24 23 23 22 21 20 20 19 18 17 17 16 16 15 15 15 15 14 14 14 14 14 13 13 13 13 13 13 13 13 13 13 12 12 13 13
25 25 24 24 25 25 25 24 25 24 23 22 21 20 19 19 18 17 16 16 15 15 15 15 14 14 14 14 13 13 13 13 12 12 12 12 12 12 12 12 12 12 12 12
24 24 24 23 24 24 24 23 24 23 23 22 20 20 19 18 17 16 16 15 15 14 14 14 14 14 13 13 13 13 12 12 12 12 12 12 12 12 12 12 12 12 12 12
24 23 23 24 24 24 24 22 23 23 22 21 20 19 18 17 16 16 15 14 14 14 14 13 13 13 13 13 12 12 12 11 11 11 11 11 11 11 11 11 11 11 11 11
22 23 24 23 23 23 22 22 23 22 22 21 20 19 18 17 16 15 14 14 13 13 13 13 12 12 12 12 12 12 11 11 11 11 11 11 11 11 11 11 11 11 11 11
23 23 22 22 22 22 22 22 22 21 21 20 19 17 17 16 15 14 14 13 13 13 12 12 12 12 12 11 11 11 11 11 11 11 11 11 11 10 10 10 10 10 10 10
23 22 21 21 22 21 21 21 21 20 19 19 18 17 16 15 15 14 13 13 13 12 12 12 12 11 11 11 11 11 10 10 10 10 10 10 10 10 10 10 9 9 10 10
22 21 21 21 21 20 20 20 19 19 18 18 17 16 15 15 14 14 13 13 12 12 12 12 11 11 11 11 10 10 10 10 10 10 10 10 9 9 9 9 9 9 9 9
22 21 21 20 20 19 19 19 18 18 17 17 16 16 15 14 14 13 13 12 12 12 11 11 11 11 11 10 10 10 10 10 10 9 9 9 9 9 9 9 9 9 9 9
21 21 20 19 19 18 18 17 17 17 16 16 16 15 14 14 13 13 12 12 12 11 11 11 11 11 10 10 10 10 9 9 9 9 9 8 8 8 8 8 8 8 8 8
20 20 19 19 18 17 17 17 16 16 16 15 15 14 14 13 13 12 12 12 11 11 11 11 10 10 10 10 10 9 9 9 9 8 8 8 8 8 8 8 8 8 8 8
19 18 18 18 17 16 16 16 15 15 15 14 14 14 13 13 12 12 11 11 11 11 10 10 10 10 10 9 9 9 8 8 8 8 8 8 7 7 8 8 8 8 8 8
18 17 17 16 16 16 15 15 15 14 14 14 13 13 12 12 12 11 11 11 11 10 10 10 10 10 9 9 9 8 8 8 8 7 7 7 7 7 7 7 7 7 7 7
17 16 16 16 15 15 15 14 14 14 14 13 13 12 12 11 11 11 11 10 10 10 10 10 9 9 9 9 8 8 8 7 7 7 7 7 7 7 7 7 7 7 7 7
16 15 15 14 14 14 14 14 13 13 13 13 12 12 11 11 11 10 10 10 10 10 9 9 9 9 9 8 8 7 7 7 7 7 7 7 7 7 7 7 7 7 7 7
15 14 14 14 13 13 13 13 13 12 12 12 12 11 11 11 10 10 10 10 9 9 9 9 9 8 8 8 7 7 7 6 6 6 6 6 6 6 6 6 6 6 6 6
14 14 13 13 13 13 12 12 12 12 12 11 11 11 10 10 10 10 10 9 9 9 9 8 8 8 8 7 7 7 6 6 6 6 6 6 6 6 6 6 6 6 6 6
13 13 13 12 12 12 12 12 11 11 11 11 10 10 10 10 9 9 9 9 9 8 8 8 8 7 7 7 6 6 6 6 5 5 5 5 6 6 6 6 6 6 6 6
12 12 12 12 12 11 11 11 11 10 10 10 10 9 9 9 9 9 8 8 8 8 8 7 7 7 7 6 6 6 5 5 5 5 5 5 5 5 5 5 5 5 5 5
12 11 11 11 11 11 11 10 10 10 10 10 9 9 9 8 8 8 8 8 8 7 7 7 7 6 6 6 6 5 5 5 5 5 5 5 5 5 5 5 5 5 5 5
11 11 11 11 11 10 10 10 10 10 9 9 9 9 8 8 8 8 7 7 7 7 7 6 6 6 6 5 5 5 5 4 4 4 4 5 5 5 4 4 4 4 4 4
10 10 10 10 10 10 10 10 9 9 9 9 8 8 8 8 7 7 7 7 7 6 6 6 6 5 5 5 5 4 4 4 4 4 4 4 4 4 4 4 4 4 4 4
10 10 10 9 9 9 9 9 9 8 8 8 8 8 7 7 7 7 6 6 6 6 6 5 5 5 5 4 4 4 4 4 4 4 4 4 4 4 3 3 3 3 3 3
9 9 9 9 9 8 8 8 8 8 7 7 7 7 7 7 6 6 6 6 5 5 5 5 5 5 4 4 4 4 4 4 4 4 3 3 3 3 3 3 3 3 3 3
8 8 8 8 8 8 7 7 7 7 7 7 6 6 6 6 6 5 5 5 5 5 5 4 4 4 4 4 4 3 3 3 3 3 3 3 3 3 3 3 2 2 2 2

GEFSNGP_850_meantemp_138.txt.gz
Temperature
20 21 21 22 22 21 20 18 18 18 17 17 16 16 16 17 17 16 16 16 16 16 16 15 15 15 15 14 14 14 14 13 13 13 13 13 13 13 12 12 12 12 12 12
21 21 21 22 21 21 20 20 19 18 17 17 17 17 17 17 16 16 16 16 16 15 15 15 15 15 14 14 14 14 13 13 13 13 12 12 12 12 12 12 12 12 12 12
19 20 21 20 21 21 20 20 19 18 17 16 15 16 16 16 17 16 16 16 16 15 15 15 14 14 14 14 14 13 13 13 12 12 12 12 12 12 12 11 11 11 11 11
17 19 20 19 20 21 20 20 19 19 17 17 17 18 18 18 17 17 16 16 15 15 15 14 14 14 14 13 13 13 13 12 12 12 12 11 11 11 11 11 11 11 11 11
16 18 18 19 20 20 20 19 19 18 17 17 18 17 16 17 17 17 17 16 16 15 15 14 14 13 13 13 13 13 12 12 12 11 11 11 11 11 10 10 10 10 10 10
16 18 18 19 20 21 20 19 18 18 17 16 16 14 15 17 17 17 16 16 15 15 14 14 14 13 13 13 12 12 12 12 11 11 11 11 10 10 10 10 10 10 10 10
16 17 17 18 20 20 19 18 19 19 18 17 17 17 18 17 17 16 16 15 15 14 14 14 13 13 13 12 12 12 11 11 11 11 10 10 10 10 10 9 9 9 9 9
14 16 17 18 19 18 18 19 19 19 19 18 18 18 18 17 16 16 15 15 14 14 14 13 13 12 12 12 12 11 11 11 11 10 10 10 10 9 9 9 9 9 9 9
15 16 18 19 20 21 21 20 20 19 19 19 18 17 17 17 16 16 15 15 14 14 13 13 12 12 12 12 11 11 11 10 10 10 10 10 9 9 9 9 8 8 8 8
15 16 17 19 20 20 20 20 20 20 19 19 18 17 17 16 16 15 15 14 14 13 13 12 12 12 12 11 11 11 10 10 10 10 10 9 9 9 8 8 8 8 8 8
15 15 17 18 19 20 20 20 19 19 19 18 18 17 16 16 15 15 14 14 13 13 13 12 12 11 11 11 11 10 10 10 10 9 9 9 9 8 8 8 8 7 7 7
15 16 15 17 19 19 19 19 18 18 18 17 17 16 16 15 15 14 14 13 13 13 12 12 12 11 11 11 10 10 10 10 9 9 9 8 8 8 8 8 7 7 7 7
19 19 19 18 18 18 18 18 18 18 17 17 16 16 15 15 14 14 13 13 13 12 12 12 11 11 11 10 10 10 10 9 9 9 8 8 8 7 7 7 7 7 7 7
19 18 17 17 17 17 17 17 17 17 16 16 15 15 15 14 14 13 13 13 12 12 12 11 11 11 10 10 10 9 9 9 9 8 8 8 7 7 7 7 7 7 7 7
17 18 17 17 17 16 16 16 16 15 15 15 15 14 14 14 13 13 13 12 12 12 11 11 11 10 10 10 9 9 9 9 8 8 8 7 7 7 7 6 6 6 6 6
16 16 16 16 16 15 15 15 15 14 14 14 14 14 13 13 13 12 12 12 11 11 11 11 10 10 10 9 9 9 9 8 8 8 7 7 7 6 6 6 6 6 6 6
15 15 15 14 15 15 14 14 14 14 14 13 13 13 13 12 12 12 12 11 11 11 11 10 10 10 9 9 9 9 8 8 8 7 7 7 6 6 6 6 6 5 5 5
15 15 14 14 14 14 14 14 14 13 13 13 13 12 12 12 11 11 11 11 10 10 10 10 10 9 9 9 8 8 8 8 7 7 7 6 6 6 6 5 5 5 5 5
14 14 14 14 13 13 13 13 13 13 13 12 12 12 12 11 11 11 10 10 10 10 10 9 9 9 8 8 8 8 7 7 7 7 6 6 6 6 5 5 5 5 5 5
13 13 13 13 13 13 12 12 12 12 12 12 12 11 11 11 11 10 10 10 10 9 9 9 8 8 8 8 7 7 7 7 6 6 6 6 5 5 5 5 5 5 5 4
12 12 12 12 12 12 12 12 11 11 11 11 11 11 11 10 10 10 9 9 9 9 9 8 8 8 7 7 7 7 6 6 6 6 6 5 5 5 5 5 5 4 4 4
11 11 11 11 11 11 11 11 11 11 10 10 10 10 10 9 9 9 9 9 9 8 8 8 7 7 7 7 6 6 6 6 6 5 5 5 5 5 4 4 4 4 4 4
11 10 10 10 10 10 10 10 10 10 10 9 9 9 9 9 9 8 8 8 8 8 7 7 7 7 6 6 6 6 6 5 5 5 5 5 4 4 4 4 4 3 3 3
10 10 10 10 10 9 9 9 9 9 9 9 9 8 8 8 8 8 8 7 7 7 7 7 6 6 6 5 5 5 5 5 5 4 4 4 4 4 4 3 3 3 3 3
9 9 9 9 9 9 9 9 9 9 8 8 8 8 8 8 7 7 7 7 7 6 6 6 6 5 5 5 5 4 4 4 4 4 4 4 4 3 3 3 3 3 2 2
8 8 8 8 8 8 8 8 8 8 8 7 7 7 7 7 7 7 6 6 6 6 6 5 5 5 5 4 4 4 4 4 3 3 3 3 3 3 3 3 2 2 2 2
7 7 7 7 7 7 7 7 7 7 7 7 7 7 6 6 6 6 6 6 5 5 5 5 4 4 4 4 4 3 3 3 3 3 3 3 2 2 2 2 2 2 2 2

GEFSNGP_850_meantemp_144.txt.gz
Temperature
18 19 19 19 19 17 17 16 16 17 16 17 16 15 16 16 16 16 16 16 16 16 16 16 15 15 15 15 14 14 14 14 13 13 13 12 12 12 12 12 12 11 11 11
19 19 19 19 19 18 17 17 17 17 17 17 17 17 16 15 16 16 16 16 16 16 16 16 15 15 15 14 14 14 13 13 13 13 12 12 12 12 11 11 11 11 11 11
17 18 19 19 19 18 18 17 17 17 18 16 15 15 16 16 16 17 17 17 17 16 16 16 15 15 15 14 14 13 13 13 13 12 12 12 12 11 11 11 11 11 10 10
16 18 19 18 18 18 18 18 17 17 17 16 17 17 18 18 18 18 18 17 17 17 16 16 15 15 14 14 13 13 13 13 12 12 12 11 11 11 11 11 10 10 10 10
14 16 17 18 18 18 18 18 17 16 16 16 16 16 16 18 18 19 18 18 17 17 16 16 15 15 14 14 13 13 13 12 12 12 11 11 11 11 10 10 10 10 10 9
14 17 17 18 19 19 19 19 18 17 16 15 15 14 16 19 19 18 18 17 17 16 16 15 15 14 14 13 13 13 12 12 12 11 11 11 10 10 10 10 10 9 9 9
14 15 16 16 17 18 19 18 19 18 17 16 16 18 19 19 19 18 18 17 17 16 16 15 15 14 14 13 13 13 12 12 11 11 11 10 10 10 10 9 9 9 9 9
13 15 16 17 17 17 18 19 19 19 19 18 19 19 19 19 19 18 18 17 16 16 15 15 14 14 13 13 13 12 12 11 11 10 10 10 10 10 9 9 9 9 9 9
14 15 16 17 18 19 19 19 20 20 20 19 19 19 19 18 18 18 17 17 16 15 15 14 14 13 13 13 12 12 11 11 11 10 10 10 10 9 9 9 8 8 8 8
12 13 15 17 18 19 19 20 20 20 20 19 19 18 18 18 18 17 17 16 16 15 15 14 14 13 13 12 12 11 11 11 10 10 10 9 9 9 9 8 8 8 8 7
13 13 15 18 18 19 19 19 19 19 19 19 18 18 18 18 17 17 16 16 15 15 14 14 13 13 12 12 11 11 11 10 10 10 10 9 9 9 8 8 8 7 7 7
14 15 14 17 18 18 18 18 19 19 18 18 18 18 17 17 17 16 16 15 15 14 14 14 13 13 12 12 11 11 11 10 10 10 9 9 9 8 8 8 8 7 7 7
17 17 17 17 17 17 17 17 18 18 18 17 17 17 17 16 16 16 15 15 15 14 14 13 13 12 12 11 11 11 10 10 10 9 9 9 8 8 8 8 8 7 7 7
16 16 16 16 16 16 16 16 16 17 17 16 16 16 16 15 15 15 15 14 14 14 13 13 12 12 12 11 11 11 10 10 10 9 9 8 8 8 8 7 7 7 7 7
15 15 15 16 16 16 16 16 15 15 15 15 15 15 15 15 15 14 14 14 13 13 13 12 12 12 11 11 11 10 10 10 9 9 9 8 8 8 7 7 7 7 6 6
14 14 14 15 15 15 15 14 14 14 14 14 14 14 14 14 14 14 13 13 13 12 12 12 12 11 11 10 10 10 10 9 9 9 8 8 8 7 7 7 6 6 6 6
12 12 13 13 13 14 14 14 14 14 14 14 14 13 13 13 13 13 13 12 12 12 11 11 11 11 10 10 10 9 9 9 8 8 8 8 7 7 7 6 6 6 6 6
13 13 13 13 13 13 13 13 13 13 13 13 13 13 13 12 12 12 12 12 11 11 11 11 10 10 10 9 9 9 9 8 8 8 8 7 7 7 6 6 6 6 6 5
12 12 12 12 12 12 12 12 12 12 12 12 12 12 12 12 12 11 11 11 11 11 11 10 10 9 9 9 9 8 8 8 8 7 7 7 6 6 6 6 6 5 5 5
12 12 12 12 12 12 12 12 12 12 12 11 11 11 11 11 11 10 10 10 10 10 10 10 9 9 9 8 8 8 8 7 7 7 7 6 6 6 6 6 5 5 5 5
11 11 11 11 11 11 11 11 11 11 11 11 10 10 10 10 10 10 9 9 9 9 9 9 9 8 8 8 7 7 7 7 7 6 6 6 6 5 5 5 5 5 4 4
10 10 10 10 10 10 10 10 10 10 10 10 9 9 9 9 9 9 9 9 9 8 8 8 8 8 7 7 7 7 7 6 6 6 6 5 5 5 5 4 4 4 4 4
9 9 9 9 9 9 9 9 9 9 9 9 9 9 9 8 8 8 8 8 8 8 7 7 7 7 7 6 6 6 6 6 6 5 5 5 5 4 4 4 4 4 4 3
9 9 9 9 9 9 9 8 8 8 8 8 8 8 8 8 8 8 7 7 7 7 7 7 6 6 6 6 6 6 5 5 5 5 5 4 4 4 4 3 3 3 3 3
8 8 8 8 8 8 8 8 8 7 7 7 7 7 7 7 7 7 7 7 6 6 6 6 6 6 5 5 5 5 5 4 4 4 4 4 4 3 3 3 3 3 3 2
7 7 7 7 7 7 7 7 7 7 7 7 7 6 6 6 6 6 6 6 6 6 5 5 5 5 5 5 5 4 4 4 4 4 3 3 3 3 3 2 2 2 2 2
7 6 6 6 6 6 6 6 6 6 6 6 6 6 6 6 6 5 5 5 5 5 5 5 4 4 4 4 4 4 3 3 3 3 3 3 2 2 2 2 2 2 1 1